Regional Weather Roundup
Issued by NWS

Home | Current Version | Previous Version | Graphics & Text | Print | Product List | Glossary On
Versions: 1 2 3 4 5 6 7 8 9 10 11 12 13 14 15 16 17 18 19 20 21 22 23 24 25 26 27 28 29 30 31 32 33 34 35 36 37 38 39 40 41 42 43 44 45 46 47 48 49 50
213
ASUS44 KJAN 291303
RWRMS

MISSISSIPPI HOURLY WEATHER ROUNDUP
NATIONAL WEATHER SERVICE JACKSON MS
700 AM CST THU JAN 29 2015

NOTE: "FAIR: INDICATES FEW OR NO CLOUDS BELOW 12,000 FEET WITH NO
SIGNIFICANT WEATHER AND/OR OBSTRUCTIONS TO VISIBILITY.

MSZ001>002-007>008-010>013-018>021-025>028-034>036-291400-
NORTHWEST MISSISSIPPI

CITY           SKY/WX    TMP DP  RH WIND       PRES   REMARKS
CLARKSDALE     FAIR      52  46  82 S10       30.10R
CLEVELAND      FAIR      50  48  92 S8        30.10R
GREENWOOD      CLOUDY    55  41  59 S15       30.12F
GREENVILLE     MOCLDY    53  46  77 S15       30.10R
GRENADA        FAIR      55  43  62 S7        30.12S
OLIVE BRANCH   PTCLDY    52  45  76 S17G24    30.05R
OXFORD         FAIR      50  39  66 S5        30.11R
TUNICA         CLOUDY    52  43  71 S14       30.07R
$$

MSZ003>006-009-014>017-022>024-029>033-037>039-291400-
NORTHEAST MISSISSIPPI

CITY           SKY/WX    TMP DP  RH WIND       PRES   REMARKS
COLUMBUS AFB   CLOUDY    48  33  55 S9        30.19R
CORINTH        FAIR      50  32  50 S12       30.08R
GOLDN TRIANGLE MOCLDY    45  34  65 S13       30.17R
STARKVILLE     CLOUDY    45  34  65 S5        30.17R
TUPELO         CLOUDY    47  34  60 S10       30.12F
$$

MSZ040-058-291400-
CENTRAL MISSISSIPPI

CITY           SKY/WX    TMP DP  RH WIND       PRES   REMARKS
JACKSON INTL   PTCLDY    50  44  80 S10       30.18R
JACKSON HAWKNS NOT AVBL
MERIDIAN KEY   PTCLDY    39  36  89 S10       30.23F WCI  32
MERIDIAN NAS   MOCLDY    43  37  79 S8        30.22F
RAYMOND        FAIR      50  46  87 MISG      30.17S
VICKSBURG      CLOUDY    53  46  77 VRB3      30.17R
$$

MSZ059>079-291400-
SOUTH MISSISSIPPI

CITY           SKY/WX    TMP DP  RH WIND       PRES   REMARKS
BROOKHAVEN       N/A     46  46 100 S7        30.21S
HATTIESBURG    CLEAR     37  35  92 CALM      30.25R
MCCOMB         CLEAR     43  40  89 CALM      30.22R FOG
NATCHEZ        MOCLDY    54  48  82 S5        30.19R
PINE BELT      CLEAR     36  32  87 CALM      30.25R
$$

MSZ080>082-291400-
COASTAL MISSISSIPPI

CITY           SKY/WX    TMP DP  RH WIND       PRES   REMARKS
BAY ST LOUIS   CLEAR     37  34  87 CALM      30.26
BILOXI         CLEAR     45  45 100 E2        30.25S
PASCAGOULA     CLEAR     37  36  96 CALM      30.26F
GULFPORT       CLEAR     41  39  93 CALM      30.24F
$$



USA.gov is the U.S. government's official web portal to all federal, state and local government web resources and services.